K5NCO Weather Reports


Display with metric or nautical units.
time (UTC)temp
F
wind
direction
speed
MPH
gust
MPH
rain 1hr
in
rain 24hr
in
rain mn
in
humidity
%
barometer
mb
20260905115039 78 136 0.0 0.0 0.00 0.00 0.00 93 1015.3
20260905114538 78 136 0.0 0.0 0.00 0.00 0.00 93 1015.4
20260905114037 78 136 0.0 0.0 0.00 0.00 0.00 93 1015.5
20260905113532 78 134 0.0 0.0 0.00 0.00 0.00 93 1015.5
20260905113028 78 133 0.0 0.0 0.00 0.00 0.00 93 1015.4
20260905112523 78 162 0.0 0.0 0.00 0.00 0.00 93 1015.3
20260905112019 78 160 0.0 0.0 0.00 0.00 0.00 93 1015.3
20260905111513 78 189 0.0 0.0 0.00 0.00 0.00 93 1015.4
20260905111013 78 206 0.0 0.0 0.00 0.00 0.00 93 1015.4
20260905110512 78 220 0.0 0.0 0.00 0.00 0.00 93 1015.3
20260905110007 78 133 0.0 0.0 0.00 0.00 0.00 92 1015.4
20260905105502 78 143 0.0 0.0 0.00 0.00 0.00 92 1015.3
20260905105001 78 223 0.0 0.0 0.00 0.00 0.00 92 1015.4
20260905104456 78 234 0.0 0.0 0.00 0.00 0.00 92 1015.3
20260905103951 78 218 0.0 0.0 0.00 0.00 0.00 92 1015.2
20260905103446 78 182 0.0 0.0 0.00 0.00 0.00 92 1015.1
20260905102942 78 191 0.0 0.0 0.00 0.00 0.00 92 1015.2
20260905102438 78 224 0.0 0.0 0.00 0.00 0.00 92 1015.1
20260905101933 78 226 0.0 0.0 0.00 0.00 0.00 92 1015.3
20260905101432 78 231 0.0 0.0 0.00 0.00 0.00 92 1015.2
20260905100927 78 230 0.0 0.0 0.00 0.00 0.00 92 1015.3
20260905100422 78 194 0.0 0.0 0.00 0.00 0.00 92 1015.1
20260905095921 78 211 0.0 0.0 0.00 0.00 0.00 92 1015.1
20260905095416 78 208 0.0 1.0 0.00 0.00 0.00 92 1015.0
20260905094910 78 187 0.0 1.0 0.00 0.00 0.00 91 1015.0
20260905094406 78 239 0.0 0.0 0.00 0.00 0.00 91 1015.1
20260905093904 78 276 0.0 0.0 0.00 0.00 0.00 91 1015.1
20260905093355 78 276 0.0 0.0 0.00 0.00 0.00 91 1015.0
20260905092850 78 277 0.0 0.0 0.00 0.00 0.00 90 1015.1
20260905092345 78 277 0.0 0.0 0.00 0.00 0.00 90 1015.1
20260905091840 78 276 0.0 0.0 0.00 0.00 0.00 90 1015.2
20260905091340 78 238 0.0 0.0 0.00 0.00 0.00 90 1015.2
20260905090838 79 219 0.0 0.0 0.00 0.00 0.00 90 1015.1
20260905090335 79 184 0.0 0.0 0.00 0.00 0.00 89 1015.0
20260905085834 79 204 0.0 0.0 0.00 0.00 0.00 89 1015.0
20260905085334 79 194 1.0 1.0 0.00 0.00 0.00 89 1015.2
20260905084830 79 121 3.0 3.0 0.00 0.00 0.00 89 1015.2
20260905084329 79 171 1.0 1.0 0.00 0.00 0.00 88 1015.1
20260905083829 79 145 2.0 2.0 0.00 0.00 0.00 88 1015.2
20260905083325 79 172 3.0 3.0 0.00 0.00 0.00 88 1015.3
20260905082820 79 178 2.0 2.0 0.00 0.00 0.00 88 1015.2
20260905082316 79 196 3.0 3.0 0.00 0.00 0.00 87 1015.1
20260905081811 79 113 4.0 6.0 0.00 0.00 0.00 87 1015.3
20260905081306 79 199 2.0 2.0 0.00 0.00 0.00 87 1015.4
20260905080805 79 166 3.0 3.0 0.00 0.00 0.00 87 1015.2
20260905080300 80 166 3.0 3.0 0.00 0.00 0.00 87 1015.3
20260905075758 80 145 2.0 3.0 0.00 0.00 0.00 87 1015.3
20260905075253 80 191 3.0 4.0 0.00 0.00 0.00 87 1015.5
20260905074752 79 204 5.0 8.0 0.00 0.00 0.00 87 1015.3
20260905074248 80 187 5.0 7.0 0.00 0.00 0.00 86 1015.4
20260905073743 80 176 3.0 3.0 0.00 0.00 0.00 86 1015.4
20260905073239 80 168 3.0 3.0 0.00 0.00 0.00 86 1015.5
20260905072738 80 161 6.0 7.0 0.00 0.00 0.00 85 1015.5
20260905072234 80 189 6.0 8.0 0.00 0.00 0.00 85 1015.5
20260905071730 80 114 4.0 6.0 0.00 0.00 0.00 85 1015.7
20260905071226 80 175 5.0 7.0 0.00 0.00 0.00 85 1015.7
20260905070721 80 168 2.0 2.0 0.00 0.00 0.00 85 1015.5
20260905070217 80 168 3.0 6.0 0.00 0.00 0.00 85 1015.7
20260905065715 80 191 4.0 4.0 0.00 0.00 0.00 84 1015.8
20260905065210 80 141 2.0 3.0 0.00 0.00 0.00 84 1015.6
20260905064705 80 149 3.0 3.0 0.00 0.00 0.00 83 1015.8
20260905064201 80 194 3.0 3.0 0.00 0.00 0.00 83 1015.7
20260905063659 80 174 4.0 4.0 0.00 0.00 0.00 83 1015.7
20260905063155 80 133 3.0 3.0 0.00 0.00 0.00 82 1015.8
20260905062651 80 144 4.0 4.0 0.00 0.00 0.00 82 1015.8
20260905062150 80 141 3.0 3.0 0.00 0.00 0.00 81 1015.8
20260905061644 80 109 3.0 4.0 0.00 0.00 0.00 81 1015.8
20260905061138 80 156 2.0 3.0 0.00 0.00 0.00 80 1015.8
20260905060634 80 140 5.0 6.0 0.00 0.00 0.00 80 1016.0
20260905060131 81 146 2.0 2.0 0.00 0.00 0.00 80 1015.8
20260905055628 81 149 2.0 2.0 0.00 0.00 0.00 80 1016.0
20260905055124 81 118 3.0 3.0 0.00 0.00 0.00 79 1015.8
20260905054620 81 122 4.0 4.0 0.00 0.00 0.00 79 1015.7
20260905054115 81 169 4.0 6.0 0.00 0.00 0.00 78 1015.8
20260905053615 81 99 4.0 6.0 0.00 0.00 0.00 78 1015.9
20260905053110 81 169 3.0 3.0 0.00 0.00 0.00 78 1015.7
20260905052609 81 152 3.0 4.0 0.00 0.00 0.00 77 1015.9
20260905052104 81 171 4.0 6.0 0.00 0.00 0.00 77 1015.8
20260905051600 81 106 2.0 3.0 0.00 0.00 0.00 77 1015.9
20260905051056 82 141 3.0 4.0 0.00 0.00 0.00 76 1016.1
20260905050552 82 130 3.0 3.0 0.00 0.00 0.00 76 1016.0
20260905050048 82 154 6.0 7.0 0.00 0.06 0.06 75 1016.0
20260905045543 82 176 2.0 3.0 0.00 0.06 0.06 76 1015.8
20260905045038 82 129 3.0 3.0 0.00 0.06 0.06 75 1016.0
20260905044532 82 107 5.0 7.0 0.00 0.06 0.06 75 1016.0
20260905044027 82 169 1.0 1.0 0.00 0.06 0.06 75 1015.8
20260905043526 82 155 3.0 6.0 0.00 0.06 0.06 75 1015.8
20260905043016 82 155 4.0 4.0 0.00 0.06 0.06 75 1015.7
20260905042514 82 110 3.0 4.0 0.00 0.06 0.06 75 1016.0
20260905042004 82 113 2.0 3.0 0.00 0.06 0.06 75 1015.9
20260905041459 82 143 4.0 6.0 0.00 0.06 0.06 75 1015.8
20260905040954 82 115 6.0 7.0 0.00 0.06 0.06 75 1015.9
20260905040448 82 151 2.0 6.0 0.00 0.06 0.06 74 1015.7
20260905035947 82 127 2.0 3.0 0.00 0.06 0.06 74 1015.8
20260905035442 83 131 0.0 0.0 0.00 0.06 0.06 74 1015.8
20260905034940 83 131 2.0 3.0 0.00 0.06 0.06 73 1015.7
20260905034435 83 133 1.0 2.0 0.00 0.06 0.06 73 1015.9
20260905033933 83 165 3.0 4.0 0.00 0.06 0.06 73 1015.8
20260905033428 83 107 2.0 3.0 0.00 0.06 0.06 73 1015.8
20260905032928 83 124 1.0 1.0 0.00 0.06 0.06 73 1016.0
20260905032424 83 143 0.0 0.0 0.00 0.06 0.06 73 1015.7
20260905031919 83 125 1.0 2.0 0.00 0.06 0.06 73 1015.8
20260905031415 83 131 2.0 2.0 0.00 0.06 0.06 73 1015.8
20260905030910 83 130 2.0 3.0 0.00 0.06 0.06 73 1015.5
20260905030405 84 124 1.0 2.0 0.00 0.06 0.06 73 1015.6
20260905025904 84 83 4.0 4.0 0.00 0.06 0.06 73 1015.6
20260905025354 84 99 4.0 4.0 0.00 0.06 0.06 73 1015.4
20260905024850 84 119 1.0 1.0 0.00 0.06 0.06 73 1015.2
20260905024344 84 114 5.0 6.0 0.00 0.06 0.06 72 1015.5
20260905023840 84 110 4.0 4.0 0.00 0.06 0.06 72 1015.3
20260905023335 84 126 3.0 3.0 0.00 0.06 0.06 72 1015.4
20260905022833 84 127 2.0 2.0 0.00 0.06 0.06 72 1015.2
20260905022329 84 87 4.0 4.0 0.00 0.06 0.06 72 1015.0
20260905021825 85 92 2.0 3.0 0.00 0.06 0.06 71 1015.2
20260905021320 84 115 4.0 4.0 0.00 0.06 0.06 72 1015.0
20260905020820 85 113 1.0 2.0 0.00 0.06 0.06 72 1015.1
20260905020315 85 190 4.0 4.0 0.00 0.06 0.06 71 1014.9
20260905015813 85 97 1.0 2.0 0.00 0.06 0.06 71 1014.9
20260905015308 85 171 5.0 6.0 0.00 0.06 0.06 71 1015.0
20260905014807 85 96 4.0 6.0 0.00 0.06 0.06 71 1015.0
20260905014303 85 97 4.0 6.0 0.00 0.06 0.06 71 1014.8
20260905013758 85 131 3.0 6.0 0.00 0.06 0.06 71 1014.8
20260905013254 85 115 3.0 3.0 0.00 0.06 0.06 71 1014.8
20260905012749 85 96 6.0 9.0 0.00 0.06 0.06 70 1014.8
20260905012245 85 120 3.0 4.0 0.00 0.06 0.06 71 1014.6
20260905011736 85 100 3.0 4.0 0.00 0.06 0.06 71 1014.5
20260905011226 85 113 4.0 4.0 0.00 0.06 0.06 72 1014.7
20260905010726 85 87 1.0 1.0 0.00 0.06 0.06 74 1014.5
20260905010221 85 62 3.0 3.0 0.00 0.06 0.06 74 1014.4
20260905005718 85 88 6.0 7.0 0.00 0.06 0.06 74 1014.4
20260905005213 85 135 2.0 2.0 0.00 0.06 0.06 73 1014.5
20260905004707 85 105 5.0 7.0 0.00 0.06 0.06 73 1014.3
20260905004203 85 112 1.0 2.0 0.00 0.06 0.06 74 1014.4
20260905003658 85 78 5.0 6.0 0.00 0.06 0.06 73 1014.2
20260905003154 86 85 5.0 7.0 0.00 0.06 0.06 72 1014.3
20260905002649 86 78 3.0 3.0 0.00 0.06 0.06 72 1014.2
20260905002148 86 45 1.0 1.0 0.00 0.06 0.06 72 1014.0
20260905001644 86 96 3.0 3.0 0.00 0.06 0.06 72 1013.9
20260905001143 86 83 3.0 4.0 0.00 0.06 0.06 72 1013.9
20260905000638 86 81 7.0 9.0 0.00 0.06 0.06 71 1014.2
20260905000134 86 51 3.0 4.0 0.00 0.06 0.06 71 1014.1
20260904235633 86 103 6.0 7.0 0.00 0.06 0.06 71 1014.1
20260904235133 86 62 5.0 8.0 0.00 0.06 0.06 72 1014.1
20260904234628 86 99 2.0 3.0 0.00 0.06 0.06 72 1014.0
20260904234124 86 101 3.0 9.0 0.00 0.06 0.06 72 1014.0
20260904233619 85 92 6.0 8.0 0.00 0.06 0.06 72 1014.1
20260904233115 84 111 5.0 7.0 0.00 0.06 0.06 73 1014.0
20260904232612 84 48 5.0 6.0 0.00 0.06 0.06 73 1013.9
20260904232108 83 88 5.0 7.0 0.00 0.06 0.06 75 1013.9
20260904231604 83 89 6.0 7.0 0.00 0.06 0.06 73 1014.1
20260904231104 83 92 8.0 10.0 0.00 0.06 0.06 73 1014.0
20260904230603 84 36 4.0 7.0 0.00 0.06 0.06 71 1014.0
20260904230054 84 105 4.0 7.0 0.00 0.06 0.06 69 1014.1
20260904225551 85 60 8.0 11.0 0.00 0.06 0.06 66 1014.0
20260904225046 86 88 8.0 15.0 0.00 0.06 0.06 67 1013.9
20260904224541 87 103 13.0 19.0 0.00 0.06 0.06 66 1014.0
20260904224041 90 107 4.0 6.0 0.00 0.06 0.06 60 1014.1
20260904223539 93 105 6.0 7.0 0.00 0.06 0.06 51 1014.0
20260904223036 93 176 5.0 7.0 0.00 0.06 0.06 50 1013.8
20260904222531 92 172 3.0 4.0 0.00 0.06 0.06 51 1014.1
20260904222026 92 163 7.0 9.0 0.00 0.06 0.06 51 1013.8
20260904221520 93 154 8.0 10.0 0.00 0.06 0.06 53 1013.7
20260904221015 92 204 9.0 11.0 0.00 0.06 0.06 53 1013.8
20260904220515 92 108 6.0 8.0 0.00 0.06 0.06 55 1013.9
20260904220011 93 133 9.0 9.0 0.00 0.06 0.06 54 1014.1
20260904215505 93 164 6.0 9.0 0.00 0.06 0.06 52 1013.9
20260904215001 92 154 6.0 7.0 0.00 0.06 0.06 52 1014.0
20260904214456 93 154 2.0 4.0 0.00 0.06 0.06 51 1013.9
20260904213951 93 196 4.0 6.0 0.00 0.06 0.06 50 1014.3
20260904213449 93 72 3.0 6.0 0.00 0.06 0.06 48 1014.4
20260904212946 93 167 7.0 9.0 0.00 0.06 0.06 49 1014.3
20260904212446 92 71 5.0 8.0 0.00 0.06 0.06 50 1014.3
20260904211940 93 171 7.0 8.0 0.00 0.06 0.06 49 1014.6
20260904211435 93 118 5.0 7.0 0.00 0.06 0.06 49 1014.4
20260904210931 92 179 4.0 4.0 0.00 0.06 0.06 51 1014.6
20260904210430 90 211 1.0 2.0 0.00 0.06 0.06 54 1014.4
20260904205926 91 145 6.0 7.0 0.00 0.06 0.06 53 1014.7
20260904205421 91 101 4.0 6.0 0.00 0.06 0.06 51 1014.7
20260904204919 91 152 4.0 6.0 0.00 0.06 0.06 55 1014.9
20260904204419 90 207 4.0 6.0 0.00 0.06 0.06 54 1014.9
20260904203915 90 192 5.0 6.0 0.00 0.06 0.06 55 1015.1
20260904203411 91 144 7.0 9.0 0.00 0.06 0.06 54 1015.0
20260904202906 91 202 4.0 4.0 0.00 0.06 0.06 51 1015.3
20260904202403 90 191 7.0 8.0 0.00 0.06 0.06 53 1015.3
20260904201858 90 144 2.0 2.0 0.00 0.06 0.06 53 1015.3
20260904201354 91 197 4.0 4.0 0.00 0.06 0.06 54 1015.1
20260904200848 91 111 4.0 6.0 0.00 0.06 0.06 56 1015.3
20260904200347 89 170 2.0 2.0 0.00 0.06 0.06 57 1015.4
20260904195841 90 135 10.0 11.0 0.00 0.06 0.06 57 1015.5
20260904195340 91 136 9.0 9.0 0.00 0.06 0.06 56 1015.5
20260904194835 90 96 3.0 4.0 0.00 0.06 0.06 53 1015.5
20260904194329 89 210 5.0 7.0 0.00 0.06 0.06 56 1015.5
20260904193824 89 174 6.0 8.0 0.00 0.06 0.06 55 1015.7
20260904193320 89 159 7.0 9.0 0.00 0.06 0.06 53 1015.8
20260904192815 88 251 6.0 7.0 0.00 0.06 0.06 56 1015.7
20260904192310 88 209 7.0 8.0 0.00 0.06 0.06 58 1015.9
20260904191807 89 148 7.0 8.0 0.00 0.06 0.06 56 1015.8
20260904191303 87 151 4.0 6.0 0.00 0.06 0.06 58 1016.0
20260904190759 88 184 11.0 14.0 0.00 0.06 0.06 56 1016.0
20260904190255 87 148 7.0 10.0 0.00 0.06 0.06 57 1016.2
20260904185751 87 101 4.0 6.0 0.00 0.06 0.06 55 1016.4
20260904185246 87 145 5.0 7.0 0.00 0.06 0.06 60 1016.3
20260904184745 87 176 8.0 9.0 0.00 0.06 0.06 62 1016.4
20260904184241 86 209 9.0 10.0 0.00 0.06 0.06 65 1016.5
20260904183736 86 197 7.0 9.0 0.00 0.06 0.06 68 1016.4
20260904183231 86 192 8.0 10.0 0.00 0.06 0.06 69 1016.5
20260904182726 86 228 6.0 7.0 0.00 0.06 0.06 70 1016.6
20260904182221 86 196 10.0 13.0 0.00 0.06 0.06 69 1016.5
20260904181717 86 215 4.0 6.0 0.00 0.06 0.06 68 1016.6
20260904181216 87 188 11.0 13.0 0.00 0.06 0.06 67 1016.6
20260904180712 87 153 6.0 8.0 0.00 0.06 0.06 70 1016.6
20260904180207 86 172 6.0 8.0 0.00 0.06 0.06 71 1016.8
20260904175706 85 132 2.0 3.0 0.00 0.06 0.06 73 1016.8
20260904175204 85 126 2.0 3.0 0.00 0.06 0.06 74 1016.9
20260904174659 84 136 6.0 7.0 0.00 0.06 0.06 75 1016.8
20260904174156 84 171 4.0 4.0 0.00 0.06 0.06 76 1016.9
20260904173651 85 134 4.0 4.0 0.00 0.06 0.06 76 1017.0
20260904173146 84 72 5.0 7.0 0.00 0.06 0.06 77 1016.9
20260904172642 85 148 5.0 7.0 0.00 0.06 0.06 77 1016.8
20260904172141 85 204 2.0 4.0 0.00 0.06 0.06 77 1017.0
20260904171637 85 134 4.0 4.0 0.00 0.06 0.06 76 1016.7
20260904171132 84 121 5.0 6.0 0.00 0.06 0.06 76 1017.0
20260904170627 84 208 4.0 6.0 0.00 0.06 0.06 76 1017.0
20260904170123 84 162 4.0 4.0 0.00 0.06 0.06 77 1017.1
20260904165622 84 129 4.0 4.0 0.00 0.06 0.06 77 1017.1
20260904165116 84 138 3.0 3.0 0.00 0.06 0.06 77 1017.2
20260904164616 84 130 3.0 3.0 0.00 0.06 0.06 77 1017.1
20260904164106 84 155 4.0 4.0 0.00 0.06 0.06 78 1017.0
20260904163601 84 203 2.0 3.0 0.00 0.06 0.06 78 1017.0
20260904163056 84 190 4.0 4.0 0.00 0.06 0.06 78 1017.1
20260904162556 84 213 5.0 7.0 0.00 0.06 0.06 79 1017.2
20260904162052 83 167 1.0 2.0 0.00 0.06 0.06 81 1017.0
20260904161546 83 257 5.0 6.0 0.00 0.06 0.06 80 1017.0
20260904161042 83 188 6.0 7.0 0.00 0.06 0.06 81 1016.8
20260904160537 82 226 4.0 6.0 0.00 0.06 0.06 82 1017.1
20260904160033 82 198 4.0 4.0 0.00 0.06 0.06 82 1016.8
20260904155532 82 181 4.0 4.0 0.00 0.06 0.06 83 1017.0
20260904155026 82 206 5.0 7.0 0.00 0.06 0.06 83 1016.8
20260904154520 82 234 4.0 4.0 0.00 0.06 0.06 83 1016.8
20260904154015 82 234 5.0 7.0 0.00 0.06 0.06 84 1016.7
20260904153515 82 206 7.0 8.0 0.00 0.06 0.06 84 1016.6
20260904153012 82 210 3.0 6.0 0.00 0.06 0.06 84 1016.7
20260904152507 82 181 5.0 7.0 0.00 0.06 0.06 84 1016.6
20260904152002 82 243 5.0 7.0 0.00 0.06 0.06 85 1016.5
20260904151456 82 232 4.0 6.0 0.00 0.06 0.06 85 1016.5
20260904150951 82 165 6.0 7.0 0.00 0.06 0.06 86 1016.4
20260904150446 82 212 6.0 8.0 0.00 0.06 0.06 87 1016.5
20260904145944 82 205 10.0 11.0 0.00 0.06 0.06 86 1016.2
20260904145440 81 228 8.0 11.0 0.00 0.06 0.06 88 1016.3
20260904144935 81 191 3.0 4.0 0.00 0.06 0.06 88 1016.4
20260904144431 80 225 2.0 2.0 0.00 0.06 0.06 90 1016.6
20260904143927 80 191 1.0 2.0 0.00 0.06 0.06 91 1016.3
20260904143423 80 205 7.0 8.0 0.00 0.06 0.06 91 1016.4
20260904142920 80 237 3.0 3.0 0.00 0.06 0.06 92 1016.5
20260904142415 80 203 3.0 3.0 0.00 0.06 0.06 92 1016.4
20260904141909 80 228 4.0 4.0 0.00 0.06 0.06 92 1016.4
20260904141404 80 223 2.0 2.0 0.00 0.06 0.06 93 1016.5
20260904140901 79 233 3.0 4.0 0.00 0.06 0.06 93 1016.4
20260904140355 79 207 3.0 4.0 0.00 0.06 0.06 94 1016.4
20260904135854 79 270 4.0 6.0 0.00 0.06 0.06 95 1016.2
20260904135349 79 274 2.0 3.0 0.00 0.06 0.06 96 1016.3
20260904134846 78 218 4.0 4.0 0.00 0.06 0.06 96 1016.3
20260904134345 78 193 2.0 2.0 0.00 0.06 0.06 96 1016.3
20260904133845 78 234 0.0 0.0 0.07 0.06 0.06 96 1016.2
20260904133340 78 203 1.0 1.0 0.24 0.06 0.06 96 1016.1
20260904132835 79 207 4.0 6.0 0.28 0.05 0.05 95 1016.0
20260904132330 79 211 7.0 9.0 0.17 0.03 0.03 94 1016.1
20260904131830 79 185 4.0 6.0 0.00 0.00 0.00 94 1016.1
20260904131325 79 213 6.0 8.0 0.00 0.00 0.00 93 1016.1
20260904130820 79 199 3.0 3.0 0.00 0.00 0.00 94 1016.3
20260904130319 79 205 3.0 3.0 0.00 0.00 0.00 94 1016.1
20260904125815 79 214 4.0 4.0 0.00 0.00 0.00 94 1016.2
20260904125311 79 214 3.0 3.0 0.00 0.00 0.00 94 1016.3
20260904124810 79 205 5.0 6.0 0.00 0.00 0.00 94 1016.2
20260904124307 79 179 3.0 4.0 0.00 0.00 0.00 93 1016.4
20260904123802 79 156 3.0 3.0 0.00 0.00 0.00 93 1016.2
20260904123257 79 124 1.0 2.0 0.00 0.00 0.00 93 1016.2
20260904122752 79 189 2.0 2.0 0.00 0.00 0.00 92 1016.2
20260904122251 79 160 3.0 3.0 0.00 0.00 0.00 92 1016.2
20260904121747 79 184 2.0 3.0 0.00 0.00 0.00 92 1016.0
20260904121243 79 157 4.0 6.0 0.00 0.00 0.00 92 1015.8
20260904120739 79 133 3.0 4.0 0.00 0.00 0.00 92 1015.8
20260904120235 79 104 2.0 3.0 0.00 0.00 0.00 91 1015.9
20260904115735 79 158 2.0 3.0 0.00 0.00 0.00 91 1015.8
20260904115229 79 183 2.0 3.0 0.00 0.00 0.00 91 1015.9